{"data":{"norad_id":46701,"intl_designator":"2020-073AH","name":"STARLINK-1801","alt_names":[],"object_type":"PAYLOAD","status":"ACTIVE","operator":null,"country":"US","launch_date":"2020-10-18","launch_site_code":"AFETR","launch_vehicle":null,"mission":null,"orbit_class":"UNKNOWN","rcs_meters":null,"size_class":null,"mass_kg":null,"dimensions":null,"purposes":["comms"],"wikipedia_slug":null,"has_3d_model":false,"image_url":null,"decayed_at":null,"tle_current":{"epoch":"2026-05-31T13:07:58.472256Z","epoch_age_seconds":9694686,"freshness":"OLD","line1":"1 46701U 20073AH  26151.54720454  .10742885  12491-4  39665-3 0  9994","line2":"2 46701  53.0177 137.1315 0004338 281.3089  78.7472 16.44090342310915","mean_motion":16.44090342,"eccentricity":0.0004338,"inclination_deg":53.0177,"raan_deg":137.1315,"arg_perigee_deg":281.3089,"mean_anomaly_deg":78.7472,"bstar":0.00039665,"rev_number":31091,"period_min":87.586427777945,"perigee_km":152.11014644123,"apogee_km":157.7782476878,"semimajor_km":6533.0811970645,"source":"CELESTRAK","updated_at":"2026-06-01T09:00:37.424054Z"}}}